EHI
9 5 1 0 0 0 0 0 0 0 0 0 0 0 0 0 0 0 0 0 0 0 0 0 1 3 2 1 2 2 1 0 0 1 1 1 1 3 2 1 0 0 0 0 0 0 0 0 0
7 3 1 0 0 0 0 0 0 0 0 0 0 0 0 0 0 0 0 0 0 0 0 1 2 3 2 1 1 1 1 0 0 0 0 1 1 2 2 1 0 0 0 0 0 0 0 0 0
3 1 0 0 0 0 0 0 0 0 0 0 0 0 0 0 0 0 0 0 0 0 0 1 2 2 1 0 0 0 0 0 0 0 0 0 1 1 1 0 0 0 0 0 0 0 0 0 0
1 0 0 0 0 0 0 0 0 0 0 0 0 0 0 0 0 0 0 0 0 0 0 1 1 1 0 0 0 0 0 0 0 1 0 0 0 0 0 0 0 0 0 0 0 0 0 0 0
0 0 0 0 0 0 0 0 0 0 0 0 0 0 0 0 1 1 1 0 0 0 0 0 0 0 0 0 0 0 0 0 0 0 0 0 0 0 0 0 0 0 0 0 0 0 0 0 0
0 0 0 0 0 0 0 0 0 0 0 0 0 0 0 0 1 2 1 0 0 0 0 0 0 0 0 0 0 0 0 0 0 0 0 0 0 0 0 0 0 0 0 0 0 0 0 0 0
0 0 0 0 0 0 0 0 0 0 0 0 0 0 0 0 1 2 1 0 0 0 0 0 0 0 0 0 0 0 0 0 0 0 0 0 0 0 0 0 0 0 0 0 0 0 1 1 1
0 0 0 0 0 0 0 0 0 0 0 0 0 0 0 0 0 0 0 0 0 0 0 0 0 0 0 0 0 0 0 0 0 0 0 0 0 0 0 0 0 0 0 0 0 0 1 1 1
0 0 0 0 0 0 0 0 0 0 0 0 0 0 0 0 0 0 0 0 0 0 0 0 0 0 0 0 0 0 0 0 0 0 0 0 0 0 0 0 0 0 0 0 0 0 0 0 0
0 0 0 0 0 0 0 0 0 0 0 0 0 0 0 0 0 0 0 0 0 0 0 0 0 0 0 0 0 0 0 0 0 0 0 0 0 0 0 0 0 0 0 0 0 0 0 0 0
0 0 0 1 0 0 0 0 0 0 0 0 0 0 0 0 0 0 0 0 0 0 0 0 0 0 0 0 0 0 0 0 0 0 0 0 0 0 0 0 0 0 0 0 0 0 0 0 0
0 0 0 1 1 0 0 0 0 0 0 0 0 0 0 0 0 0 0 0 0 0 0 0 0 0 0 0 0 0 0 0 0 0 0 0 0 0 0 0 0 0 0 0 0 0 0 0 0
0 0 0 1 1 0 0 0 0 0 0 0 0 0 0 0 0 0 0 0 0 0 0 0 0 0 0 0 0 0 0 0 0 0 0 0 0 0 0 0 0 0 0 0 0 0 0 0 0
0 0 0 1 1 0 0 0 0 0 0 0 0 0 0 0 0 0 0 0 0 0 0 0 0 0 0 0 0 0 0 0 0 0 0 0 0 0 0 0 0 0 0 0 0 0 0 0 0
0 0 0 0 0 0 0 0 0 0 0 0 0 0 0 0 0 0 0 0 0 0 0 0 0 0 0 0 0 0 0 0 0 0 0 0 0 0 0 0 0 0 0 0 0 0 0 0 0
0 0 0 0 0 0 0 0 0 0 0 0 0 0 0 0 0 0 0 0 0 0 0 0 0 0 0 0 0 0 0 0 0 0 0 0 0 0 0 0 0 0 0 0 0 0 0 0 0
0 0 0 0 0 0 0 0 0 0 0 0 0 0 0 0 0 0 0 0 0 0 0 0 0 0 0 0 0 0 0 0 0 0 0 0 0 0 0 0 0 0 0 0 0 0 0 0 0
0 0 0 0 0 0 0 0 0 0 0 0 0 0 0 0 0 0 0 0 0 0 0 0 0 0 0 0 0 0 0 0 0 0 0 0 0 0 0 0 0 0 0 0 0 0 0 0 0
0 0 0 0 0 0 0 0 0 0 0 0 0 0 0 0 0 0 0 0 0 0 0 0 0 0 0 0 0 0 0 0 0 0 0 0 0 0 0 0 0 0 0 0 0 0 0 0 0
0 0 0 0 0 0 0 0 0 0 0 0 0 0 0 0 0 0 0 0 0 0 0 0 0 0 0 0 0 0 0 0 0 0 0 0 0 0 0 0 0 0 0 0 0 0 0 0 0
0 0 0 0 0 0 0 0 0 0 0 0 1 1 1 0 0 0 0 0 0 0 0 0 0 0 0 0 0 0 0 0 0 0 0 0 0 0 0 0 0 0 0 0 0 0 0 0 0
0 0 0 0 0 0 0 0 0 0 0 0 2 2 1 0 0 0 0 0 0 0 0 0 0 0 0 0 0 0 0 0 0 0 0 0 0 0 0 0 0 0 0 0 0 0 0 0 0
0 0 0 0 0 0 0 0 0 0 0 0 1 1 1 0 0 0 0 0 0 0 0 0 0 0 0 0 0 0 0 0 0 0 0 0 0 0 0 0 0 0 0 0 0 0 0 0 0
0 0 0 0 0 0 0 0 0 0 0 0 0 0 0 0 0 0 0 0 0 0 0 0 0 0 0 0 0 0 0 0 0 0 0 0 0 0 0 0 0 0 0 0 0 0 0 0 0
0 0 0 0 0 0 0 0 0 0 0 0 0 0 0 0 0 0 0 0 0 0 0 0 0 0 0 0 0 0 0 0 0 0 0 0 0 0 0 0 0 0 0 0 0 0 0 0 0
0 0 0 0 0 0 0 0 0 0 0 0 0 0 0 0 0 0 0 0 0 0 0 0 0 0 0 0 0 0 0 0 0 0 0 0 0 0 0 0 0 0 0 0 0 0 0 0 0
0 0 0 0 0 0 0 0 0 0 0 0 0 0 0 0 0 0 0 0 0 0 0 0 0 0 0 0 0 0 0 0 0 0 0 0 0 0 0 0 0 0 0 0 0 0 0 0 0
0 0 0 0 0 0 0 0 0 0 0 0 0 0 0 0 0 0 0 0 0 0 0 0 0 0 0 0 0 0 0 0 0 0 0 0 0 0 0 0 0 0 0 0 0 0 0 0 0
0 0 0 0 0 0 0 0 0 0 0 0 0 0 0 0 0 0 0 0 0 0 0 0 0 0 0 0 0 0 0 0 0 0 0 0 0 0 0 0 0 0 0 0 0 0 0 0 0
0 0 0 0 0 0 0 0 0 0 0 0 0 0 0 0 0 0 0 0 0 0 0 0 0 0 0 0 0 0 0 0 0 0 0 0 0 0 0 0 0 0 0 0 0 0 0 0 0
Wind_Speed
5 3 1 3 5 5 2 1 2 2 5 5 8 9 9 7 6 8 3 7 8 6 5 7 11 12 12 13 13 13 13 12 12 12 12 11 11 10 10 10 9 9 9 9 8 8 8 7 7
3 2 3 4 5 3 1 1 4 4 6 5 8 8 8 8 7 8 5 7 8 7 5 7 11 12 12 12 12 12 12 11 11 11 11 10 10 10 9 9 9 8 8 8 8 7 7 6 6
2 0 3 4 3 3 3 2 5 6 4 4 6 6 6 5 6 5 6 9 8 7 5 7 12 12 12 11 12 11 11 11 10 10 10 9 9 9 8 8 8 8 8 7 7 6 6 6 6
2 3 4 5 4 1 4 4 6 6 5 6 7 7 5 3 4 8 10 10 9 7 5 7 12 12 12 11 11 11 10 10 9 9 9 8 8 8 8 8 7 7 6 6 6 6 5 6 6
3 4 5 4 3 2 3 4 4 5 4 6 8 8 5 3 10 12 10 10 9 6 4 6 11 11 11 11 10 9 9 8 8 8 7 7 6 6 6 6 6 6 5 5 5 5 5 5 5
4 4 5 3 3 3 3 5 8 10 9 8 9 7 4 4 10 10 10 8 8 7 5 5 10 11 10 10 9 8 7 7 6 6 5 5 4 4 4 4 5 4 4 4 4 4 5 5 5
4 4 3 4 4 3 3 3 5 7 7 5 6 7 4 4 7 9 10 8 7 6 5 3 4 6 8 8 7 7 6 5 4 4 3 3 2 2 2 3 3 3 3 3 4 4 5 5 5
4 4 3 3 4 3 2 3 5 7 6 6 5 7 6 6 7 8 8 7 6 5 4 4 3 2 2 2 5 5 4 3 3 3 3 2 2 1 1 2 2 3 3 4 5 5 5 6 5
3 5 2 2 4 3 4 6 5 5 7 4 4 6 8 10 9 9 7 5 4 5 3 3 3 2 2 1 2 2 2 2 3 3 3 3 2 2 2 2 3 3 4 5 6 6 5 6 6
4 4 2 2 4 5 6 7 5 6 8 7 8 8 9 9 9 9 7 6 5 5 4 3 4 3 2 1 1 1 1 2 2 2 2 2 2 2 2 4 5 5 6 6 7 6 5 4 3
3 4 3 3 4 6 7 6 4 8 7 8 11 11 9 8 8 7 6 5 5 5 5 4 4 3 2 1 1 1 1 2 2 2 2 2 2 2 2 2 3 4 5 4 5 5 3 3 2
5 3 4 5 5 5 6 6 5 5 6 8 10 10 8 9 8 7 7 5 5 5 4 4 4 3 2 2 2 1 1 2 2 3 3 2 2 2 2 2 3 2 2 3 3 2 3 3 3
5 3 5 6 8 7 9 8 6 4 5 7 8 8 8 8 7 6 6 5 5 5 4 3 4 4 3 3 2 3 2 2 2 3 3 3 3 2 2 2 3 3 2 3 3 3 4 4 4
3 6 6 7 8 7 10 6 5 4 6 7 8 7 8 9 8 6 6 5 5 4 4 4 5 4 5 4 3 2 2 3 3 3 4 4 3 2 3 3 3 4 3 3 3 3 3 3 3
6 8 6 4 5 5 8 6 4 6 7 8 8 7 8 7 8 8 7 6 5 5 5 5 5 5 5 5 4 3 3 3 3 3 4 4 4 3 3 3 4 3 3 4 3 4 3 4 4
4 4 3 1 3 4 7 5 3 5 8 7 6 7 7 6 7 7 7 6 6 5 5 5 6 6 5 4 4 3 3 3 3 3 3 4 4 4 4 3 3 4 4 4 3 3 3 3 3
3 3 3 1 1 3 5 5 4 4 7 7 6 6 7 6 5 5 6 7 6 6 6 5 5 5 5 5 4 4 3 4 3 3 3 4 5 5 4 3 3 4 4 4 3 3 3 3 3
3 3 2 1 1 3 4 4 4 4 7 7 6 6 6 6 5 6 6 6 6 6 6 5 5 5 5 4 4 3 4 3 3 3 3 4 4 5 4 4 4 4 4 4 4 3 3 2 2
6 5 3 0 1 2 5 5 5 5 5 6 6 6 7 6 5 5 7 6 6 5 5 5 5 4 4 3 3 3 2 2 2 3 4 5 5 5 5 4 4 4 4 4 4 3 4 4 3
7 6 3 1 0 2 3 2 3 4 6 8 9 8 8 6 4 5 6 6 6 6 5 5 5 4 4 3 2 2 2 1 1 2 4 5 5 5 4 4 3 4 4 5 5 4 3 3 4
4 6 6 4 1 2 3 1 2 3 3 5 8 8 8 10 9 7 6 6 6 6 6 5 4 4 4 4 3 3 3 3 3 3 2 3 4 5 4 4 4 4 4 3 4 4 4 3 4
2 5 8 7 3 1 2 2 5 5 4 7 8 8 9 9 8 7 7 6 6 6 6 6 5 4 4 5 5 5 3 2 1 1 1 2 4 4 4 4 4 4 3 4 4 4 3 4 3
3 5 6 4 3 1 1 2 6 3 6 9 10 11 10 9 10 9 8 8 6 6 6 5 5 4 4 4 5 5 3 2 1 1 2 2 3 3 3 4 4 4 3 4 4 4 4 3 3
6 5 4 4 3 0 4 3 6 6 10 9 10 11 11 10 9 8 7 6 5 5 5 5 5 4 4 5 5 5 6 4 3 2 1 1 1 2 2 3 3 3 3 3 3 4 5 4 4
4 5 3 2 2 4 3 3 8 9 9 12 12 12 11 10 9 8 8 7 7 7 6 6 6 5 4 5 4 5 6 6 5 4 3 2 1 1 1 2 2 2 2 3 3 4 4 3 4
3 6 5 3 3 3 1 4 8 6 7 9 9 10 10 10 10 10 10 9 8 8 7 6 6 5 5 5 4 4 5 4 3 4 3 3 2 2 1 2 2 2 3 3 3 3 3 3 4
3 2 4 4 1 1 3 4 6 2 4 7 8 9 10 11 11 11 10 9 9 9 8 8 7 5 5 5 5 4 4 4 4 3 3 2 2 2 2 2 2 2 3 3 3 3 2 3 3
5 5 4 3 2 1 3 3 4 4 5 7 9 10 10 10 10 10 10 10 9 8 7 7 7 7 5 5 5 4 4 4 4 4 4 3 2 2 3 2 2 2 2 3 3 2 2 3 3
2 2 3 2 3 3 2 6 6 8 8 10 10 11 11 11 12 11 10 9 8 7 7 7 6 5 5 5 4 5 4 4 4 4 4 4 3 3 3 3 3 3 2 2 3 2 3 3 3
5 5 6 4 3 3 2 7 6 6 7 8 9 9 9 10 10 9 9 8 7 8 7 7 7 6 6 5 5 5 4 4 4 4 4 4 3 3 3 3 3 3 2 2 3 3 3 3 3
Wind_Direction
310 322 69 61 58 58 60 19 101 72 58 49 69 78 78 59 83 115 145 129 119 114 105 103 101 99 96 94 90 88 87 85 83 81 79 77 76 73 70 68 65 63 61 60 59 59 57 56 52
317 336 56 59 78 79 66 74 85 85 130 121 74 71 75 70 79 106 127 128 122 118 110 109 105 100 97 94 92 90 88 86 84 81 79 77 75 74 71 68 65 61 58 56 53 52 52 48 44
308 95 77 68 86 128 139 137 108 89 104 96 81 55 63 85 95 113 140 131 118 112 109 111 106 102 98 96 94 92 90 88 85 81 76 74 73 72 69 67 65 63 58 54 49 45 41 38 33
41 44 55 70 90 133 144 145 121 107 69 63 95 71 59 72 108 129 133 126 117 111 110 115 109 106 102 97 94 92 91 89 85 82 80 76 72 70 70 67 65 64 59 53 46 39 32 28 25
64 72 63 64 74 72 102 126 105 94 79 75 89 91 69 54 116 128 129 127 122 118 116 118 114 112 108 104 101 97 95 93 90 85 82 78 75 72 70 71 67 64 58 47 36 29 25 21 20
56 66 83 92 95 79 78 96 93 92 104 97 91 95 79 110 123 133 130 128 131 133 131 125 124 121 117 114 111 107 102 96 91 85 82 80 76 74 67 67 69 64 52 34 17 7 6 10 11
96 87 110 121 108 97 119 104 104 117 112 101 109 98 114 131 138 137 134 132 135 137 133 129 130 125 125 122 117 115 111 102 92 81 74 75 75 77 70 54 58 54 36 13 360 351 353 355 355
119 96 89 102 113 120 129 95 100 108 104 119 112 122 146 158 143 130 128 129 134 141 145 146 137 125 121 123 124 119 110 94 76 61 52 45 38 48 32 7 11 19 15 3 354 345 342 339 342
87 79 103 137 138 139 116 101 82 70 97 87 84 120 143 143 130 122 120 123 141 154 163 157 153 157 162 177 141 109 79 43 26 16 32 29 352 341 332 324 345 351 351 350 347 340 331 335 346
81 109 166 167 140 130 117 110 112 96 94 95 100 112 127 129 128 132 137 144 151 158 173 166 168 176 185 180 102 42 25 13 9 356 11 21 0 336 353 343 360 357 355 353 357 0 350 347 351
96 132 134 94 105 109 109 97 92 115 118 142 142 144 138 131 132 135 138 142 149 151 153 167 170 164 160 134 101 61 25 15 5 2 28 43 36 10 12 359 351 354 1 1 4 9 10 9 4
95 90 119 115 105 97 110 110 95 113 152 156 149 144 138 139 142 144 142 137 128 126 141 149 147 135 131 114 99 92 63 39 28 20 35 57 51 34 19 5 356 358 358 7 12 15 19 26 30
76 103 94 100 94 87 100 103 105 109 144 142 136 132 140 143 141 143 137 128 119 120 133 137 124 116 114 98 88 81 65 55 42 35 31 56 62 45 27 14 10 6 9 17 18 25 31 30 32
112 102 100 101 94 93 105 106 100 143 147 138 135 137 146 145 144 137 131 127 122 121 125 118 102 105 100 93 91 79 67 58 50 41 38 50 57 51 39 23 17 12 11 21 33 35 37 33 36
98 95 81 85 101 110 100 75 115 160 147 140 138 140 140 143 140 143 145 138 135 127 119 115 111 99 96 98 97 87 71 63 52 40 41 47 49 52 50 37 24 9 13 27 35 33 36 38 38
63 73 87 53 119 128 112 133 178 154 141 137 137 138 133 137 143 146 140 139 135 123 118 117 110 98 93 95 97 89 76 67 52 40 39 41 43 51 54 45 26 12 22 28 35 32 36 29 30
44 106 128 140 168 125 122 155 193 159 143 143 144 139 131 129 136 144 143 141 137 128 122 113 107 105 101 95 90 81 75 67 53 44 41 39 42 48 57 48 26 24 32 28 32 37 39 34 25
160 135 130 150 290 124 131 162 176 174 156 157 158 150 142 142 160 159 148 141 133 127 123 119 111 112 107 93 79 62 53 47 43 44 42 44 43 48 55 53 33 33 37 28 28 37 34 39 31
146 126 120 173 257 125 147 165 184 178 165 164 170 169 160 165 176 155 146 141 131 124 121 125 122 123 116 103 97 86 67 43 38 43 46 47 49 53 58 52 40 39 44 33 30 36 38 28 26
129 121 122 111 165 122 135 187 203 189 189 182 183 180 171 167 167 157 148 145 146 144 138 135 137 136 132 131 133 129 121 91 62 33 38 40 49 52 64 61 50 43 46 37 33 38 47 28 30
141 151 158 154 100 54 105 348 241 225 197 187 185 181 178 176 177 170 158 155 152 153 154 152 152 142 134 127 108 86 64 47 33 29 24 24 51 60 61 58 57 51 56 50 40 43 61 52 25
162 170 147 145 126 210 157 216 255 218 208 200 194 187 188 186 182 174 165 163 164 165 156 149 147 143 136 127 125 130 129 134 179 179 59 37 44 58 66 64 57 53 53 51 45 54 58 72 46
167 155 140 142 131 92 204 189 270 200 212 214 203 195 193 189 185 182 175 171 167 159 151 147 142 139 135 129 135 131 129 145 147 108 74 47 31 41 60 66 61 56 54 55 55 54 55 63 73
119 92 72 61 76 271 214 185 260 214 210 204 201 194 191 188 185 179 175 161 154 149 147 146 143 146 142 137 138 140 143 142 130 125 109 57 32 29 44 65 62 61 59 59 63 66 66 63 70
101 101 78 30 360 259 214 198 248 230 210 198 194 194 189 184 177 173 172 168 162 160 159 154 150 152 152 145 148 155 154 151 153 161 156 143 113 78 42 64 65 63 64 67 71 70 64 62 71
175 137 148 168 217 278 243 235 259 246 201 188 185 183 180 181 178 178 180 176 169 168 166 162 159 162 165 160 163 166 158 152 160 168 164 164 172 180 155 116 91 78 74 70 74 74 68 68 71
139 158 167 139 191 273 268 274 302 15 147 166 169 171 179 182 180 179 179 178 175 174 176 172 166 164 171 170 165 168 167 156 161 169 166 169 174 163 133 117 101 83 79 75 80 77 70 73 72
153 151 107 121 150 286 297 264 245 220 191 182 178 182 186 183 180 179 181 182 182 180 178 172 168 170 174 172 174 173 175 168 164 158 163 167 165 139 125 121 114 98 84 76 78 81 75 78 66
148 137 129 134 164 164 257 274 237 205 194 185 187 187 184 183 184 184 184 185 181 174 172 172 173 168 170 173 174 165 170 165 159 163 171 169 158 145 141 147 132 117 103 90 89 95 88 86 71
177 180 154 154 223 183 186 269 280 196 182 176 182 185 184 182 182 180 177 175 175 177 177 179 179 177 181 179 171 169 168 161 164 174 177 165 158 155 156 147 134 127 119 111 113 116 103 104 93